Weather History for Garrison, ND

Change the Weather History Date:

Saturday, January 11, 2014

  Actual Average Record
Temperature  
Mean Temperature 26 °F -  
Max Temperature 34 °F 15 °F - (-1)
Min Temperature 17 °F 0 °F - (-1)
Degree Days  
Heating Degree Days 40    
Moisture  
Dew Point 20 °F    
Average Humidity 83    
Maximum Humidity 92    
Minimum Humidity 78    
Precipitation  
Precipitation 0.04 in - - ()
Sea Level Pressure  
Sea Level Pressure 29.58 in    
Wind  
Wind Speed 10 mph (SW)    
Max Wind Speed 15 mph    
Max Gust Speed -    
Averages and records for this station are not official NWS values.
T = Trace of Precipitation, MM = Missing Value Source: NWS Daily Summary

Daily Weather History Graph

Daily Weather History Graph

Search for Another Location

Airport:

Trip Planner

Search our weather history database for the weather conditions in past years. The results will help you decide how hot, cold, wet, or windy it might be!

Date:

Astronomy

Jan. 11, 2014 Rise Set
Actual Time 8:31 AM CST 5:16 PM CST
Civil Twilight 7:56 AM CST 5:51 PM CST
Nautical Twilight 7:17 AM CST 6:29 PM CST
Astronomical Twilight 6:40 AM CST 7:07 PM CST
Moon 2:04 PM CST (1/11) 4:34 AM CST (1/11)
Length of Visible Light 9h 54m
Length of Day
8h 44m
Waxing Gibbous, 83% of the Moon is Illuminated
Jan 11
Waxing Gibbous
Jan 15
Full
Jan 23
Last Quarter
Jan 30
New
Feb 6
First Quarter

Hourly Weather History & Observations

Time (CST) Temp. Windchill Dew Point Humidity Pressure Visibility Wind Dir Wind Speed Gust Speed Precip Events Conditions
12:52 AM 25.0 °F 18.1 °F 23.0 °F 92% 29.66 in - NW 5.8 mph - N/A   Unknown
1:52 AM 25.0 °F 12.6 °F 21.0 °F 85% 29.67 in - NW 15.0 mph - N/A   Unknown
2:52 AM 25.0 °F 13.1 °F 21.0 °F 85% 29.68 in - WNW 13.8 mph - N/A   Unknown
3:52 AM 23.0 °F 13.1 °F 19.0 °F 85% 29.71 in - West 9.2 mph - N/A   Unknown
4:52 AM 21.9 °F 9.2 °F 18.0 °F 85% 29.72 in - WNW 13.8 mph - N/A   Unknown
5:52 AM 19.9 °F 7.3 °F 15.1 °F 81% 29.74 in - West 12.7 mph - N/A   Unknown
6:52 AM 17.1 °F 3.6 °F 12.9 °F 84% 29.77 in - West 12.7 mph - N/A   Unknown
7:52 AM 18.0 °F 5.4 °F 15.1 °F 88% 29.75 in - West 11.5 mph - N/A   Unknown
8:52 AM 17.1 °F 7.6 °F 12.9 °F 84% 29.75 in - West 6.9 mph - N/A   Unknown
9:52 AM 19.0 °F 11.1 °F 14.0 °F 81% 29.74 in - North 5.8 mph - N/A   Unknown
10:52 AM 23.0 °F 15.8 °F 17.1 °F 78% 29.73 in - West 5.8 mph - N/A   Unknown
11:52 AM 23.0 °F 17.0 °F 18.0 °F 81% 29.70 in - SSE 4.6 mph - N/A   Unknown
12:52 PM 23.0 °F 14.7 °F 18.0 °F 81% 29.67 in - SSW 6.9 mph - N/A   Unknown
1:52 PM 25.0 °F 18.1 °F 19.9 °F 81% 29.60 in - SSW 5.8 mph - N/A   Unknown
2:52 PM 27.0 °F 18.0 °F 21.9 °F 81% 29.58 in - South 9.2 mph - N/A   Unknown
3:52 PM 28.0 °F 19.3 °F 21.9 °F 78% 29.53 in - SSE 9.2 mph - N/A   Unknown
4:52 PM 27.0 °F 16.1 °F 21.9 °F 81% 29.50 in - SE 12.7 mph - N/A   Unknown
5:52 PM 27.0 °F 17.3 °F 21.0 °F 78% 29.44 in - SE 10.4 mph - N/A   Unknown
6:52 PM 27.0 °F 17.3 °F 21.9 °F 81% 29.43 in - SSE 10.4 mph - N/A   Unknown
7:52 PM 28.9 °F 19.2 °F 23.0 °F 78% 29.37 in - SSE 11.5 mph - N/A   Unknown
8:52 PM 30.9 °F 21.7 °F 25.0 °F 79% 29.32 in - South 11.5 mph - N/A   Unknown
9:52 PM 32.0 °F 23.6 °F 26.1 °F 79% 29.29 in - South 10.4 mph - N/A   Unknown
10:52 PM 34.0 °F 26.0 °F 30.0 °F 85% 29.31 in - SW 10.4 mph - 0.01 in   Unknown
11:52 PM 34.0 °F 28.0 °F 32.0 °F 92% 29.30 in - SSW 6.9 mph - 0.03 in   Unknown